Вернуться в каталог

COSMOS 374 DEB

АктивенUNKNOWN
NORAD 4823·DEBRIS·🇷🇺 Russia

Запущен Oct 23, 1970 с Baikonur Cosmodrome

Loading…

Ближайшие Пролёты (ближайшие 24 часа)

TLE

СвежийSource: Space-Track

Эпоха: Sep 14, 2026, 09:04 UTC

1 04823U 70089T   26257.37808855 -.00000035  00000-0  36019-4 0  9999
2 04823  63.0181  41.9079 0945547  28.1313 336.7586 12.66351529547914

Отслеживайте COSMOS 374 DEB в реальном времени с AllMySat

Download on the App Store